Regional Weather Roundup
Issued by NWS Upton, NY

Current Version | Previous Version | Graphics & Text | Print | Product List | Glossary Off
Versions: 1 2 3 4 5 6 7 8 9 10 11 12 13 14 15 16 17 18 19 20 21 22 23 24 25 26 27 28 29 30 31 32 33 34 35 36 37 38 39 40 41 42 43 44 45 46 47 48 49 50

000
ASUS41 KOKX 040908
RWROKX

REGIONAL WEATHER ROUNDUP
NATIONAL WEATHER SERVICE NEW YORK NY
500 AM EDT SAT JUL 04 2015

NOTE: "FAIR" INDICATES FEW OR NO CLOUDS BELOW 12,000 FEET WITH NO
SIGNIFICANT WEATHER AND/OR OBSTRUCTIONS TO VISIBILITY.

NYZ071-072-176-178-NJZ106-104-041000-
NEW YORK CITY METRO AREA


CITY           SKY/WX    TMP DP  RH WIND       PRES   REMARKS
CENTRAL PARK   CLOUDY    70  60  70 CALM      29.98F
LAGUARDIA APRT LGT RAIN  71  56  58 CALM      29.95F
KENNEDY INTL   CLOUDY    70  60  70 CALM      29.96F
NEWARK/LIBERTY LGT RAIN  71  62  73 E3        29.95F
BRNX BOT. GARD   N/A     66  57  72 SE1       29.98R
TETERBORO      LGT RAIN  70  62  76 CALM      29.94F
$$

NYZ177-179-078>081-041000-
LONG ISLAND NEW YORK

CITY           SKY/WX    TMP DP  RH WIND       PRES   REMARKS
FARMINGDALE    CLOUDY    68  60  75 CALM      29.96F
ISLIP          CLOUDY    66  62  87 NE3       29.95F
SHIRLEY        CLOUDY    64  61  90 E3        29.98S
WESTHAMPTON    CLOUDY    61  59  93 CALM      29.99S
MONTAUK POINT    N/A     65  62  90 CALM      30.00S
$$

NYZ052-065-067-041000-
HUDSON VALLEY

CITY           SKY/WX    TMP DP  RH WIND       PRES   REMARKS
WHITE PLAINS   DRIZZLE   65  60  84 CALM      29.97S
NEWBURGH       MOCLDY    66  63  88 CALM      29.98S
MONTGOMERY     LGT RAIN  63  60  90 CALM      29.96S
POUGHKEEPSIE   CLOUDY    63  59  87 CALM      29.95F
ALBANY         CLOUDY    60  53  77 CALM      29.97S
$$

NJZ001-105-106-008-010-013-015-019>022-104-041000-
NEW JERSEY

CITY           SKY/WX    TMP DP  RH WIND       PRES   REMARKS
NEWARK/LIBERTY LGT RAIN  71  62  73 E3        29.95F
TETERBORO      LGT RAIN  70  62  76 CALM      29.94F
CALDWELL       CLOUDY    67  63  87 CALM      29.96F
MORRISTOWN     CLOUDY    66  63  88 CALM      29.96F FOG
SOMERVILLE     CLOUDY    65  63  93 CALM      29.93F
SUSSEX         CLOUDY    65  61  87 CALM      29.96S
ANDOVER          N/A     67  59  75 CALM      29.96F
TRENTON        LGT RAIN  66  63  90 E3        29.93F
MILLVILLE      CLOUDY    68  66  93 E6        29.90F
ATLANTIC CITY  CLOUDY    70  67  90 E6        29.91F
WRIGHTSTOWN    CLOUDY    65  65  99 E3        29.91F
TOMS RIVER     CLOUDY    66  64  94 CALM      29.94F
BELMAR         CLOUDY    68  61  77 E5        29.95F
$$

PAZ047>061-062-071-041000-
EASTERN PENNSYLVANIA

CITY           SKY/WX    TMP DP  RH WIND       PRES   REMARKS
PHILADELPHIA   CLOUDY    70  66  87 NE3       29.92F
ALLENTOWN      CLOUDY    70  62  76 CALM      29.94S
SCRANTON       RAIN      64  58  80 VRB3      29.96R
$$

CTZ002-004>006-009-010-012-RIZ004-006-007-MAZ004-011-015-041000-
SOUTHERN NEW ENGLAND
 IN CT

CITY           SKY/WX    TMP DP  RH WIND       PRES   REMARKS
BRADLEY INTL   CLOUDY    59  56  89 N3        29.98F
HARTFORD       CLOUDY    63  60  90 SE8       29.99S
DANBURY        LGT RAIN  63  57  81 CALM      30.00S
WTRBRY/OXFORD  CLOUDY    63  55  77 SE3       30.01R
BRIDGEPORT     CLOUDY    68  63  84 N6        29.97F
MERIDEN        CLOUDY    62  59  90 CALM      29.99S
NEW HAVEN      CLOUDY    64  61  90 CALM      29.99R
CHESTER        FAIR      61  61 100 CALM      30.00S
GROTON         CLOUDY    62  59  90 N5        29.98S
WILLIMANTIC    CLOUDY    59  56  89 CALM      30.01S

 IN RI

CITY           SKY/WX    TMP DP  RH WIND       PRES   REMARKS
PROVIDENCE     MOCLDY    62  58  86 CALM      30.00F
BLOCK ISLAND   CLOUDY    63  57  82 CALM      30.00R
WESTERLY       CLOUDY    60  58  92 CALM      30.00S

 IN MA

CITY           SKY/WX    TMP DP  RH WIND       PRES   REMARKS
BOSTON         MOCLDY    64  58  80 SW5       30.00F
WORCESTER      MOCLDY    62  51  67 W7        30.01F
WESTFIELD      CLOUDY    56  52  86 N3        29.99F
PROVINCETOWN   MOCLDY    59   3  10 S5        30.01F
NANTUCKET      MOCLDY    60  58  92 CALM      30.01S FOG
$$

ANZ330-335-338-340-345-350-353-355-041000-
COASTAL MARINE OBSERVATIONS


STATION/POSITION TIME  SKY/WX   TEMP    WIND        PRES    VSBY  WAVE
                                AIR SEA DIR/SP/G                  HT/PER
                 (UTC)          (F)     (DEG/KT/KT) (MB)    (MI)  (FT/S)
NY HARB ENTRANCE 0850            70 70  120/  6/  8 1013.9          3/ 8
4S FIRE IS       0803               71                N/A           3/ 8
20S FIRE ISLAND  0850            69 68  100/  6/  8 1014.3          3/ 8
GREAT SOUTH BAY  0830            69 74  140/  6/  8   N/A
23SW MTP         0850            67 66   90/  6/  6 1014.8          3/ 8
HUDSON CANYON    NOT AVBL
KINGS POINT      0800            68 66   30/  2/  3 1014.0
CENTRAL LI SOUND NOT AVBL
EASTERN LI SOUND 0800            64 63   60/  4/  4   N/A
ROBBINS REEF     0800            71     150/  4/  5 1013.4
$$


>>>>>>>>>>>>>>>>>>>>>>>>>>>> KEY <<<<<<<<<<<<<<<<<<<<<<<<<<<
>                                                          <
>     SKY/WX - SKY CONDITION/PRESENT WEATHER               <
>     TMP    - TEMPERATURE IN FAHRENHEIT                   <
>     DP     - DEWPOINT IN FAHRENHEIT                      <
>     RH     - RELATIVE HUMIDITY IN PERCENT                <
>     WIND   - DIRECTION AND SPEED IN MPH                  <
>     PRES   - MEAN SEA LEVEL PRESSURE IN INCHES OF HG     <
>     WCI    - WIND CHILL INDEX                            <
>     VSB    - VISIBILITY IN MILES                         <
>     HX     - HEAT INDEX                                  <
>     TC     - TEMPERATURE IN CELSIUS                      <
>     VRB    - VARIABLE WIND DIRECTION                     <
>                                                          <
>>>>>>>>>>>>>>>>>>>>>>>>>>>> KEY <<<<<<<<<<<<<<<<<<<<<<<<<<<




USA.gov is the U.S. government's official web portal to all federal, state and local government web resources and services.